User: anonymous   Login
Location: Chassagnes
(44.4047°N, 4.1657°E)
Time: 12:18:24
(UTC+00:00)
Language:

Cosmos 1354 Rocket - Orbit

View from above orbital plane
View from above orbital plane
View from above satellite
View from above satellite

Ground track
Ground track

The orbit data is extracted from the following two-line orbital elements,

1 13149U 82037B   21018.72892961  .00000058  00000-0  29273-4 0  9994
2 13149  74.0424   9.2090 0014466 253.3566 279.4456 14.35380444 25484
Epoch (UTC): 18 January 2021 17:29:39
Eccentricity: 0.0014466
inclination: 74.0424°
perigee height: 763 km
apogee height: 784 km
right ascension of ascending node: 9.2090°
argument of perigee: 253.3566°
revolutions per day: 14.35380444
mean anomaly at epoch: 279.4456°
orbit number at epoch: 2548

The dashed part of the orbit path shows where the satellite is in the earth's shadow,  

DLR